TimeEST,TemperatureF,Dew PointF,Humidity,Sea Level PressureIn,VisibilityMPH,Wind Direction,Wind SpeedMPH,Gust SpeedMPH,PrecipitationIn,Events,Conditions,WindDirDegrees,DateUTC
12:53 AM,39.9,10.0,29,30.35,10.0,NE,8.1,-,N/A,,Overcast,40,2013-11-26 05:53:00
1:07 AM,39.2,10.4,31,30.28,10.0,ENE,8.1,-,N/A,,Overcast,60,2013-11-26 06:07:00
1:53 AM,39.0,10.0,30,30.31,10.0,NE,9.2,-,N/A,,Overcast,50,2013-11-26 06:53:00
2:53 AM,39.0,10.9,32,30.30,10.0,NE,6.9,-,N/A,,Overcast,50,2013-11-26 07:53:00
3:43 AM,39.2,10.4,31,30.22,10.0,NE,9.2,-,N/A,,Overcast,50,2013-11-26 08:43:00
3:53 AM,39.0,10.9,32,30.28,10.0,ENE,6.9,-,N/A,,Overcast,60,2013-11-26 08:53:00
4:33 AM,39.2,12.2,33,30.22,10.0,NE,10.4,-,0.00,,Overcast,40,2013-11-26 09:33:00
4:53 AM,39.0,14.0,36,30.27,10.0,NNE,10.4,-,0.00,Rain,Light Rain,30,2013-11-26 09:53:00
5:53 AM,35.1,26.1,70,30.26,7.0,NNE,9.2,-,0.02,Rain,Light Rain,30,2013-11-26 10:53:00
6:14 AM,33.8,28.4,81,30.19,5.0,NNE,10.4,-,0.05,Rain,Rain,30,2013-11-26 11:14:00
6:53 AM,33.1,30.0,89,30.23,5.0,NE,13.8,-,0.10,Rain,Rain,40,2013-11-26 11:53:00
7:53 AM,33.1,30.9,92,30.19,5.0,NE,8.1,-,0.06,Rain,Rain,50,2013-11-26 12:53:00
8:53 AM,33.1,32.0,96,30.16,4.0,ENE,9.2,16.1,0.02,Rain,Light Rain,60,2013-11-26 13:53:00
10:38 AM,35.6,35.6,100,30.06,2.5,NE,9.2,-,0.03,Rain,Light Rain,50,2013-11-26 15:38:00
10:53 AM,36.0,35.1,97,30.10,3.0,NE,10.4,-,0.04,Rain,Light Rain,40,2013-11-26 15:53:00
11:19 AM,35.6,35.6,100,30.02,2.5,NE,10.4,-,0.02,Rain,Light Rain,40,2013-11-26 16:19:00
11:42 AM,37.4,35.6,93,30.00,3.0,NE,9.2,-,0.03,Rain,Light Rain,40,2013-11-26 16:42:00
11:53 AM,37.0,36.0,96,30.04,2.5,NE,9.2,-,0.04,Rain,Rain,50,2013-11-26 16:53:00
12:53 PM,39.0,37.9,96,29.97,2.5,East,5.8,-,0.06,Rain,Light Rain,80,2013-11-26 17:53:00
1:28 PM,39.2,39.2,100,29.88,3.0,East,5.8,-,0.02,Rain,Light Rain,80,2013-11-26 18:28:00
1:53 PM,41.0,39.9,96,29.91,2.5,East,5.8,-,0.04,Rain,Rain,80,2013-11-26 18:53:00
2:15 PM,42.8,41.0,93,29.83,3.0,Variable,4.6,-,0.03,Rain,Light Rain,0,2013-11-26 19:15:00
2:51 PM,42.8,42.8,100,29.80,2.5,Variable,3.5,-,0.05,Rain,Rain,0,2013-11-26 19:51:00
2:53 PM,44.1,43.0,96,29.85,2.0,Variable,3.5,-,0.05,Rain,Rain,0,2013-11-26 19:53:00
3:01 PM,44.6,44.6,100,29.79,1.8,Variable,3.5,-,0.01,Rain,Light Rain,0,2013-11-26 20:01:00
3:10 PM,46.4,44.6,93,29.78,2.0,Variable,3.5,-,0.01,Rain,Light Rain,0,2013-11-26 20:10:00
3:45 PM,48.2,48.2,100,29.74,1.5,East,4.6,-,0.05,Rain,Light Rain,100,2013-11-26 20:45:00
3:53 PM,48.9,48.0,97,29.78,1.5,Variable,3.5,-,0.06,Rain,Light Rain,0,2013-11-26 20:53:00
4:15 PM,51.8,50.0,94,29.72,2.5,Variable,3.5,-,0.05,Rain,Rain,0,2013-11-26 21:15:00
4:36 PM,51.8,51.8,100,29.69,1.8,Variable,3.5,-,0.10,Rain,Rain,0,2013-11-26 21:36:00
4:45 PM,53.6,51.8,94,29.69,2.0,Variable,5.8,-,0.11,Rain,Rain,0,2013-11-26 21:45:00
4:53 PM,54.0,53.1,97,29.73,2.5,Variable,4.6,-,0.12,Rain,Light Rain,0,2013-11-26 21:53:00
5:01 PM,55.4,53.6,94,29.67,4.0,Variable,4.6,-,0.01,Rain,Light Rain,0,2013-11-26 22:01:00
5:15 PM,57.2,55.4,94,29.66,1.8,Variable,4.6,-,0.07,Rain,Heavy Rain,0,2013-11-26 22:15:00
5:25 PM,57.2,57.2,100,29.65,2.5,Variable,4.6,-,0.11,Rain,Rain,0,2013-11-26 22:25:00
5:43 PM,60.8,60.8,100,29.65,2.0,Variable,6.9,-,0.19,Rain,Rain,0,2013-11-26 22:43:00
5:53 PM,63.0,62.1,97,29.68,3.0,South,10.4,24.2,0.23,Rain,Light Rain,170,2013-11-26 22:53:00
6:00 PM,62.6,62.6,100,29.65,9.0,South,13.8,26.5,0.00,Rain,Light Rain,170,2013-11-26 23:00:00
6:27 PM,64.4,62.6,94,29.64,10.0,South,10.4,26.5,0.00,,Overcast,180,2013-11-26 23:27:00
6:48 PM,57.2,55.4,94,29.68,2.5,West,16.1,32.2,0.07,Rain,Heavy Rain,260,2013-11-26 23:48:00
6:53 PM,55.0,53.1,93,29.72,2.0,WNW,12.7,21.9,0.09,Rain,Heavy Rain,290,2013-11-26 23:53:00
6:56 PM,53.6,51.8,94,29.68,3.0,WNW,15.0,23.0,0.00,Rain,Light Rain,290,2013-11-26 23:56:00
7:05 PM,48.2,46.4,93,29.68,7.0,NW,11.5,-,0.00,Rain,Light Rain,310,2013-11-27 00:05:00
7:53 PM,45.0,43.0,93,29.73,4.0,North,9.2,-,0.00,Rain,Light Rain,350,2013-11-27 00:53:00
8:53 PM,44.1,42.1,93,29.71,5.0,Variable,4.6,-,0.02,Rain,Light Rain,0,2013-11-27 01:53:00
9:30 PM,44.6,42.8,93,29.64,10.0,NNE,6.9,-,0.00,,Overcast,20,2013-11-27 02:30:00
9:53 PM,44.1,43.0,96,29.68,10.0,North,8.1,-,0.00,,Overcast,350,2013-11-27 02:53:00
10:01 PM,44.6,42.8,93,29.63,8.0,North,6.9,-,0.00,Rain,Light Rain,10,2013-11-27 03:01:00
10:42 PM,44.6,44.6,100,29.62,10.0,North,4.6,-,0.00,Rain,Light Rain,350,2013-11-27 03:42:00
10:53 PM,45.0,44.1,97,29.67,4.0,NNW,3.5,-,0.00,Rain,Light Rain,340,2013-11-27 03:53:00
11:33 PM,44.6,44.6,100,29.59,10.0,NNE,5.8,-,0.00,,Overcast,30,2013-11-27 04:33:00
11:53 PM,46.0,44.1,93,29.65,5.0,Variable,3.5,-,0.00,Rain,Light Rain,0,2013-11-27 04:53:00